Regional Weather Roundup
Issued by NWS Cleveland, OH

Home | Current Version | Previous Version | Text Only | Print | Product List | Glossary Off
Versions: 1 2 3 4 5 6 7 8 9 10 11 12 13 14 15 16 17 18 19 20 21 22 23 24 25 26 27 28 29 30 31 32 33 34 35 36 37 38 39 40 41 42 43 44 45 46 47 48 49 50

000
ASUS41 KCLE 020510
RWRCLE
OHIO REGIONAL WEATHER ROUNDUP
NATIONAL WEATHER SERVICE WILMINGTON, OH
100 AM EDT THU APR 02 2015

NOTE: "FAIR" INDICATES FEW OR NO CLOUDS BELOW 12,000 FEET WITH NO
SIGNIFICANT WEATHER AND/OR OBSTRUCTIONS TO VISIBILITY.

OHZ001>008-015>018-024>027-034-035-043-044-020600-
   NORTHWEST OHIO

CITY           SKY/WX    TMP DP  RH WIND       PRES   REMARKS
DEFIANCE       CLEAR     53  33  46 S10       29.98F
FINDLAY        CLEAR     47  33  58 S12       30.00F
TOLEDO EXPRESS CLEAR     52  32  46 S12       29.97F
TOLEDO EXEC    CLEAR     52  32  46 S13       29.99F
LIMA           CLEAR     48  32  53 S10       30.01F
$$

OHZ009>014-019>023-028>033-038-089-020600-
   NORTHEAST OHIO

CITY           SKY/WX    TMP DP  RH WIND       PRES   REMARKS
CLE-HOPKINS    PTCLDY    52  32  46 S12       30.07F
CLE-LAKEFRONT  CLEAR     52  32  46 S13       30.03F
CUY CO. ARPT   NOT AVBL
LORAIN-ELYRIA  CLEAR     49  34  56 S10       30.04F
ASHTABULA      CLEAR     43  31  62 S8        30.07F
AKRON-CANTON   PTCLDY    45  30  55 S10       30.07F
WOOSTER        PTCLDY    42  32  67 S6        30.07F
MANSFIELD      CLEAR     48  32  53 S10       30.05F
YOUNGSTOWN     PTCLDY    47  29  49 S9        30.08S
$$

OHZ042-051>053-060>062-070>072-077>081-020600-
  SOUTHWEST OHIO

CITY           SKY/WX    TMP DP  RH WIND       PRES   REMARKS
CINC-COVINGTON MOCLDY    50  29  44 S10       30.04F
CINC-LUNKEN    MOCLDY    43  35  73 CALM      30.06F
HAMILTON       MOCLDY    44  32  62 E3        30.05F
DAYTON         PTCLDY    53  29  39 S10       30.03F
WRIGHT-PAT AFB PTCLDY    50  29  44 SE8       30.03F
DAYTON GENERAL PTCLDY    52  27  38 S8        30.04F
WILMINGTON     PTCLDY    47  29  49 SE8       30.06F
$$

OHZ036-037-039>041-045>050-054>059-063>069-073>076-082>088-020600-
  CENTRAL AND SOUTHEAST OHIO

CITY           SKY/WX    TMP DP  RH WIND       PRES   REMARKS
COLUMBUS       PTCLDY    50  29  44 SE6       30.07F
OSU AIRPORT    CLEAR     50  28  42 S7        30.06F
BOLTON FIELD   CLEAR    N/A N/A N/A SE7       30.06F
RICKENBACK AFB CLEAR     45  29  53 SE6       30.06F
NEWARK         FAIR      38  33  82 CALM      30.08F
MARION         CLEAR     46  31  55 S9        30.05F
LANCASTER      CLEAR     38  31  76 SE3       30.08F
ZANESVILLE     CLEAR     45  26  47 S5        30.10S
NEW PHILLY     PTCLDY    40  31  70 S3        30.10F
$$


USA.gov is the U.S. government's official web portal to all federal, state and local government web resources and services.